Time,TemperatureF,DewpointF,PressureIn,WindDirection,WindDirectionDegrees,WindSpeedMPH,WindSpeedGustMPH,Humidity,HourlyPrecipIn,Conditions,Clouds,dailyrainin,SoftwareType,DateUTC
2013-02-20 22:10:00,25.4,12.7,29.86,WSW,238,8.0,8.0,58,0.00,,,0.00,Wunderground v.1.15,2013-02-21 03:10:00,
2013-02-20 22:11:00,25.4,12.7,29.87,SW,235,8.0,8.0,58,0.00,,,0.00,Wunderground v.1.15,2013-02-21 03:11:00,
2013-02-20 22:13:00,25.4,12.7,29.86,West,267,8.0,9.0,58,0.00,,,0.00,Wunderground v.1.15,2013-02-21 03:13:00,
2013-02-20 22:15:00,25.4,13.1,29.86,WSW,253,8.0,9.0,59,0.00,,,0.00,Wunderground v.1.15,2013-02-21 03:15:00,
2013-02-20 22:20:00,25.4,13.1,29.86,SW,220,6.0,6.0,59,0.00,,,0.00,Wunderground v.1.15,2013-02-21 03:20:00,
2013-02-20 22:25:00,25.3,12.6,29.86,West,276,6.0,11.0,58,0.00,,,0.00,Wunderground v.1.15,2013-02-21 03:25:00,
2013-02-20 22:30:00,25.3,13.0,29.87,WSW,249,6.0,6.0,59,0.00,,,0.00,Wunderground v.1.15,2013-02-21 03:30:00,
2013-02-20 22:35:00,25.2,12.9,29.87,SW,233,5.0,6.0,59,0.00,,,0.00,Wunderground v.1.15,2013-02-21 03:35:00,
2013-02-20 22:40:00,25.1,13.2,29.86,West,276,3.0,3.0,60,0.00,,,0.00,Wunderground v.1.15,2013-02-21 03:40:00,
2013-02-20 22:45:00,24.9,13.0,29.87,WNW,286,3.0,6.0,60,0.00,,,0.00,Wunderground v.1.15,2013-02-21 03:45:00,
2013-02-20 22:50:00,24.9,13.7,29.87,WSW,240,3.0,3.0,62,0.00,,,0.00,Wunderground v.1.15,2013-02-21 03:50:00,
2013-02-20 22:55:00,24.8,12.9,29.87,WSW,246,3.0,9.0,60,0.00,,,0.00,Wunderground v.1.15,2013-02-21 03:55:00,
2013-02-20 23:00:00,24.9,13.0,29.88,West,272,4.0,7.0,60,0.00,,,0.00,Wunderground v.1.15,2013-02-21 04:00:00,
2013-02-20 23:06:00,24.9,13.0,29.87,WSW,248,5.0,7.0,60,0.00,,,0.00,Wunderground v.1.15,2013-02-21 04:06:00,
2013-02-20 23:11:00,24.9,13.0,29.87,West,259,4.0,16.0,60,0.00,,,0.00,Wunderground v.1.15,2013-02-21 04:11:00,
2013-02-20 23:16:00,24.9,13.0,29.88,WSW,251,4.0,16.0,60,0.00,,,0.00,Wunderground v.1.15,2013-02-21 04:16:00,
2013-02-20 23:21:00,24.9,13.0,29.88,SW,234,4.0,16.0,60,0.00,,,0.00,Wunderground v.1.15,2013-02-21 04:21:00,
2013-02-20 23:26:00,24.9,13.0,29.88,West,269,4.0,16.0,60,0.00,,,0.00,Wunderground v.1.15,2013-02-21 04:26:00,
2013-02-20 23:31:00,24.9,13.3,29.88,WSW,244,5.0,16.0,61,0.00,,,0.00,Wunderground v.1.15,2013-02-21 04:31:00,
2013-02-20 23:36:00,25.1,13.5,29.89,West,265,5.0,16.0,61,0.00,,,0.00,Wunderground v.1.15,2013-02-21 04:36:00,
2013-02-20 23:41:00,25.1,13.9,29.89,West,260,4.0,16.0,62,0.00,,,0.00,Wunderground v.1.15,2013-02-21 04:41:00,
2013-02-20 23:46:00,25.1,13.5,29.89,WSW,252,4.0,16.0,61,0.00,,,0.00,Wunderground v.1.15,2013-02-21 04:46:00,
2013-02-20 23:51:00,25.2,13.6,29.89,West,277,4.0,16.0,61,0.00,,,0.00,Wunderground v.1.15,2013-02-21 04:51:00,
2013-02-20 23:56:00,25.3,14.5,29.89,SSW,213,5.0,16.0,63,0.00,,,0.00,Wunderground v.1.15,2013-02-21 04:56:00,